Printer-friendly version

IAU Minor Planet Center

Minor Planet Center

MPEC 2008-V49 : 2008 VH14

The following Minor Planet Electronic Circular may be linked-to from your own Web pages, but must not otherwise be redistributed electronically.


Read MPEC 2008-V48 Read MPEC 2008-V50


M.P.E.C. 2008-V49                                Issued 2008 Nov. 10, 13:01 UT

     The Minor Planet Electronic Circulars contain information on unusual
         minor planets and routine data on comets.  They are published
   on behalf of Commission 20 of the International Astronomical Union by the
          Minor Planet Center, Smithsonian Astrophysical Observatory,
                          Cambridge, MA 02138, U.S.A.

             Prepared using the Tamkin Foundation Computer Network

                              MPC@CFA.HARVARD.EDU
          URL http://www.cfa.harvard.edu/iau/mpc.html  ISSN 1523-6714

                                   2008 VH14

Observations:
     K08V14H* C2008 11 08.22258 03 09 29.26 +14 56 46.0          19.8 V EV049G96
     K08V14H  C2008 11 08.23082 03 09 29.88 +14 56 43.6          19.8 V EV049G96
     K08V14H  C2008 11 08.23910 03 09 30.49 +14 56 40.8          19.8 V EV049G96
     K08V14H  C2008 11 08.28369 03 09 33.69 +14 56 28.3          20.9 V EV049G96
     K08V14H  C2008 11 08.29137 03 09 34.23 +14 56 25.9          20.2 V EV049G96
     K08V14H  C2008 11 08.29900 03 09 34.74 +14 56 23.4          20.7 V EV049G96
     K08V14H  C2008 11 08.30662 03 09 35.31 +14 56 21.3          20.4 V EV049G96
     K08V14H  C2008 11 08.44007 03 09 45.00 +14 55 36.3          21.5 V EV049G96
     K08V14H  C2008 11 08.44997 03 09 45.79 +14 55 32.9          21.3 V EV049G96
     K08V14H  C2008 11 08.45992 03 09 46.58 +14 55 29.2          21.1 V EV049G96
     K08V14H  C2008 11 08.46962 03 09 47.34 +14 55 25.9          20.9 V EV049G96
     K08V14H  C2008 11 09.16138 03 10 51.95 +14 51 43.8          20.1 R EV049H01
     K08V14H  C2008 11 09.16453 03 10 52.20 +14 51 42.9          20.2 R EV049H01
     K08V14H  C2008 11 09.17424 03 10 52.96 +14 51 39.9          20.0 R EV049H01
     K08V14H  C2008 11 09.18139 03 10 53.53 +14 51 37.8          20.0 R EV049H01
     K08V14H  C2008 11 09.35260 03 11 06.39 +14 50 38.4                 EV049H36
     K08V14H HC2008 11 09.35453 03 11 06.95 +14 50 43.7                 EV049291
     K08V14H HC2008 11 09.35920 03 11 07.39 +14 50 42.4                 EV049291
     K08V14H HC2008 11 09.36318 03 11 07.57 +14 50 40.8                 EV049291
     K08V14H  C2008 11 09.36372 03 11 07.21 +14 50 33.4          20.4 R EV049H36

Observer details:
291 LPL/Spacewatch II.  Observer J. V. Scotti.  1.8-m f/2.7 reflector + CCD.
G96 Mt. Lemmon Survey.  Observer A. D. Grauer.  Measurers E. C. Beshore,
    A. Boattini, G. J. Garradd, A. R. Gibbs, A. D. Grauer, R. E. Hill,
    R. A. Kowalski, S. M. Larson, R. H. McNaught.  1.5-m reflector + CCD.
H01 Magdalena Ridge Observatory, Socorro.  Observers W. H. Ryan, E. V. Ryan.
    Measurer W. H. Ryan.  2.4-m f/8.9 reflector + CCD.
H36 Sandlot Observatory, Scranton.  Observer G. Hug.  0.56-m reflector + CCD.

Orbital elements:
2008 VH14                                                Earth MOID = 0.0311 AU
Epoch 2008 Nov. 30.0 TT = JDT 2454800.5                 MPC
M 354.24649              (2000.0)            P               Q
n   0.19976600     Peri.  256.09968     -0.21551752     -0.97643914
a   2.8981554      Node   206.35383     +0.90513534     -0.19556583
e   0.6537131      Incl.    1.40699     +0.36644538     -0.09121742
P   4.93           H   23.1           G   0.15           U   8
Residuals in seconds of arc
081108 G96  0.4-  0.1-    081108 G96  0.5-  0.0     081109 H01  0.1-  0.0
081108 G96  0.1-  0.1-    081108 G96  0.0   0.1+    081109 H36  1.0+  0.6-
081108 G96  0.1+  0.6-    081108 G96  0.2+  0.0     081109 291  0.3-  0.0
081108 G96  0.3+  0.2+    081108 G96  0.2+  0.2+    081109 291  0.9+  0.3+
081108 G96  0.2+  0.1+    081109 H01  0.1+  0.2+    081109 291  0.9-  0.1+
081108 G96  0.3-  0.0     081109 H01  0.1+  0.3+    081109 H36  0.0   1.5-
081108 G96  0.2+  0.2+    081109 H01  0.1-  0.1+

Ephemeris:
2008 VH14                a,e,i = 2.90, 0.65, 1                   q = 1.0036
Date    TT    R. A. (2000) Decl.     Delta      r     Elong.  Phase     V
2008 11 10    03 12.12   +14 47.3    0.211    1.201   176.5     2.9    20.4
2008 11 20    03 34.62   +13 29.3    0.148    1.135   173.5     5.6    19.7
2008 11 30    04 24.95   +10 46.0    0.0942   1.079   169.1     9.9    18.8
2008 12 10    06 33.41   +02 59.2    0.0588   1.037   151.4    27.1    18.2
2008 12 20    09 50.48   -08 55.0    0.0637   1.011   113.5    63.1    19.4
2008 12 30    11 34.52   -12 33.4    0.0991   1.004    99.0    75.4    20.7
2009 01 09    12 18.01   -13 03.4    0.141    1.015    99.2    72.9    21.4
2009 01 19    12 38.47   -12 46.7    0.181    1.045   104.9    65.5    21.8
2009 01 29    12 46.77   -12 00.1    0.219    1.091   113.5    55.9    22.0

Timothy B. Spahr             (C) Copyright 2008 MPC           M.P.E.C. 2008-V49

Read MPEC 2008-V48 Read MPEC 2008-V50


Our Web policy. Index to the CBAT/MPC/ICQ pages.


Valid HTML 4.01!